Weather in Koski

Russia / Smolensk Oblast     54°02′33″N   33°02′52″E
temp.,
°C
wind,
m/s
gust,
m/s
humid.,
%
clouds,
%
prec.,
mm/h
press.,
hPa
HPBL,
m
28 november, sun
sun2800:00+4sw61282100 0.2 998893
03:00+3sw51185100 0.2 1000752
06:00+2sw5979100 0.0 1001886
09:00+1sw4108449 0.0 1004410
12:00+2sw498091 0.0 1005500
15:00+2ssw2580100 0.0 1006331
18:00+1se2388100 0.0 100668
21:00+1ese2791100 0.0 1006159
29 november, mon
mon2900:00+2ese41294100 0.0 1004313
03:00+3se41296100 0.0 1002354
06:00+4sse41196100 0.2 1000345
09:00+4se4998100 0.4 999241
12:00+5se41097100 0.1 997329
15:00+5ese4997100 0.2 994373
18:00+5ese4998100 0.0 991333
21:00+5ese3798100 0.0 987273
30 november, tue
tue3000:00+5ene2499100 0.0 982150
03:00+5n2399100 0.3 979104
06:00+5wnw3998100 0.6 977421
09:00+1wsw81696100 2.5 981749
12:000wsw81696100 3.1 983845
15:000wsw71397100 4.6 983894
18:00−2wsw71193100 1.1 986893
21:00−3w71294100 2.1 987982
1 december, wed
wed100:00−3w61495100 1.8 9881232
03:00−3w81384100 2.9 9911036
06:00−4w71287100 0.1 9931008
09:00−4w5118999 0.1 995808
12:00−3w5108699 0.1 996965
15:00−3w598590 0.1 997862
18:00−6w399414 0.0 999309
21:00−7wsw269738 0.0 1000122
2 december, thu
thu200:00−7ssw2696100 0.0 1000120
03:00−4s41290100 0.0 997448
06:00−1s61497100 0.8 994796
09:00+1ssw71698100 3.2 993890
12:00+3sw71496100 0.2 994888
15:00+3sw71693100 0.2 9941131
18:00+3sw8158197 0.1 9971095
21:00+1wsw7148070 0.1 1000923